星链-35278(STARLINK-35278)

导读

STARLINK-35278是美国SpaceX公司星链星座的一员,于2025年10月7日发射入轨,属于低轨互联网通信卫星。它延续星链项目设计,依托近地轨道组网,为全球提供高速宽带接入服务,尤其服务偏远地区、海洋与航空等传统网络覆盖盲区,进一步扩充了星链星座的全球服务能力。

基本信息
目录编号:
65902
目录名称:
STARLINK-35278
国际标识:
2025-224W
轨道中心:
EARTH
卫星名称:
星链-35278
卫星全名:
星链-35278(STARLINK-35278)
卫星状态:
在轨 (已飞行332 天)
发射日期:
2025-10-07 UTC
国别 :
美国 (US)
星等 :
--
轨道信息
数据来源 国际轨道数据
星历时间: 2026-09-03T18:21:51+0800
19小时前
查看轨道信息
半长轴: 6840.827km
偏心率: 0.0001439
轨道倾角: 53.158°
近地点辐角 150.076°
升交点赤经 265.305°
平近点角 210.033°
近地点: 461.705km
远地点: 463.675km
周期: 93.847分钟
每日圈数: 15.344045
详细信息
固有亮度:
5
最大亮度:
2.5
卫星平台:
Starlink V1.0
覆盖范围:
全球
运营商:
太空探索技术公司
运营商所在国:
美国
制造商(研发单位):
太空探索技术公司
制造商所在国:
美国
使用方式:
暂无
卫星简介
Starlink 计划是 SpaceX 推出的全球卫星互联网项目,通过发射低轨道卫星,为全球尤其是偏远地区提供高速、低延迟的互联网服务。自 2019 年起,Starlink 已部署数千颗卫星,旨在缩小全球数字鸿沟,推动互联网普及。该项目还为军事、航空等行业提供通信支持,带来广泛经济效益。
2D轨道图
3D轨道图
轨道高度分析图
轨道倾角分析图
轨道综合分析图
查看轨道综合分析图
交会数据列表
事件ID 空间交会对象 最接近时刻(TCA) 交会距离 交会风险概率(CRP) 交会风险指数(CRI) 操作
CDM_260904-162005-898306-590222
2026-09-04T
16:20:31+0000
0.723 km
远距离
4.993836E-5 中风险 0.69
CDM_260904-043705-898306-590222
2026-09-04T
04:37:04+0000
1.704 km
极远距离
2.911963E-6 低风险 0.44
CDM_260904-030305-898306-590223
2026-09-04T
03:03:17+0000
1.775 km
极远距离
2.593737E-6 低风险 0.43
CDM_260904-144605-898306-590222
2026-09-04T
14:46:43+0000
2.574 km
极远距离
1.137514E-6 低风险 0.36